Location: Bellerive
(46.9237°N, 7.0223°E)
Time: 03:47:11
(UTC+00:00)

Spot 2 Rocket - Pass Details

Date: 09 April 2020
Orbit: 757 x 772 km, 98.6° (Epoch: 06 June)

Event Time Altitude Azimuth Distance (km) Brightness Sun altitude
Exits shadow 20:22:12 42° 151° (SSE) 1,097 3.8 -20.7°
Maximum altitude 20:23:59 78° 74° (ENE) 794 3.4 -20.9°
Drops below altitude 10° 20:29:06 10° 348° (NNW) 2,323 6.7 -21.6°
Sets 20:31:25 0° 348° (NNW) 3,252 7.6 -21.9°
